Weather History for Winona, MN

Change the Weather History Date:

Tuesday, August 13, 2013

  Actual Average Record
Temperature  
Mean Temperature 63 °F -  
Max Temperature 73 °F 84 °F 95 °F (1971)
Min Temperature 53 °F 62 °F 50 °F (2004)
Degree Days  
Heating Degree Days 2    
Growing Degree Days 13 (Base 50)    
Moisture  
Dew Point 50 °F    
Average Humidity 67    
Maximum Humidity 94    
Minimum Humidity 38    
Precipitation  
Precipitation 0.00 in - - ()
Sea Level Pressure  
Sea Level Pressure 30.15 in    
Wind  
Wind Speed 2 mph (NNW)    
Max Wind Speed 9 mph    
Max Gust Speed 9 mph    
Visibility 10 miles    
Events      
Averages and records for this station are not official NWS values.
T = Trace of Precipitation, MM = Missing Value Source: NWS Daily Summary

Daily Weather History Graph

Daily Weather History Graph

Search for Another Location

Airport:

Trip Planner

Search our weather history database for the weather conditions in past years. The results will help you decide how hot, cold, wet, or windy it might be!

Date:

Astronomy

Aug. 13, 2013 Rise Set
Actual Time 6:08 AM CDT 8:13 PM CDT
Civil Twilight 5:36 AM CDT 8:45 PM CDT
Nautical Twilight 4:58 AM CDT 9:23 PM CDT
Astronomical Twilight 4:15 AM CDT 10:06 PM CDT
Moon 1:20 PM CDT (8/13) 11:31 PM CDT (8/13)
Length of Visible Light 15h 08m
Length of Day
14h 05m
Waxing Crescent, 42% of the Moon is Illuminated
Aug 13
Waxing Crescent
Aug 14
First Quarter
Aug 20
Full
Aug 28
Last Quarter
Sep 5
New

Hourly Weather History & Observations

Time (CDT) Temp. Dew Point Humidity Pressure Visibility Wind Dir Wind Speed Gust Speed Precip Events Conditions
12:16 AM 62.6 °F 53.6 °F 72% 30.07 in 10.0 mi NE 3.5 mph - N/A   Scattered Clouds
12:35 AM 62.6 °F 53.6 °F 72% 30.08 in 10.0 mi NE 4.6 mph - N/A   Mostly Cloudy
12:55 AM 60.8 °F 53.6 °F 77% 30.08 in 10.0 mi East 3.5 mph - N/A   Scattered Clouds
1:16 AM 60.8 °F 53.6 °F 77% 30.08 in 10.0 mi Calm Calm - N/A   Clear
1:35 AM 60.8 °F 53.6 °F 77% 30.08 in 10.0 mi Calm Calm - N/A   Clear
1:55 AM 59.0 °F 53.6 °F 82% 30.09 in 10.0 mi Calm Calm - N/A   Clear
2:16 AM 59.0 °F 53.6 °F 82% 30.09 in 10.0 mi ENE 3.5 mph - N/A   Clear
2:35 AM 57.2 °F 53.6 °F 88% 30.09 in 10.0 mi Calm Calm - N/A   Clear
2:55 AM 55.4 °F 53.6 °F 94% 30.10 in 10.0 mi Calm Calm - N/A   Scattered Clouds
3:16 AM 55.4 °F 53.6 °F 94% 30.10 in 10.0 mi Calm Calm - N/A   Scattered Clouds
3:35 AM 55.4 °F 53.6 °F 94% 30.10 in 10.0 mi Calm Calm - N/A   Clear
3:55 AM 55.4 °F 53.6 °F 94% 30.10 in 10.0 mi Calm Calm - N/A   Clear
4:16 AM 55.4 °F 53.6 °F 94% 30.11 in 10.0 mi Calm Calm - N/A   Mostly Cloudy
4:35 AM 55.4 °F 53.6 °F 94% 30.11 in 10.0 mi NW 3.5 mph - N/A   Scattered Clouds
4:55 AM 55.4 °F 53.6 °F 94% 30.11 in 10.0 mi NNW 3.5 mph - N/A   Scattered Clouds
5:16 AM 55.4 °F 53.6 °F 94% 30.12 in 10.0 mi NW 4.6 mph - N/A   Scattered Clouds
5:35 AM 55.4 °F 53.6 °F 94% 30.12 in 10.0 mi Calm Calm - N/A   Clear
5:55 AM 53.6 °F 51.8 °F 94% 30.12 in 10.0 mi NW 3.5 mph - N/A   Clear
6:16 AM 53.6 °F 51.8 °F 94% 30.13 in 10.0 mi Calm Calm - N/A   Clear
6:35 AM 53.6 °F 51.8 °F 94% 30.13 in 10.0 mi Calm Calm - N/A   Clear
6:55 AM 53.6 °F 51.8 °F 94% 30.14 in 10.0 mi Calm Calm - N/A   Clear
7:16 AM 55.4 °F 53.6 °F 94% 30.15 in 10.0 mi Calm Calm - N/A   Clear
7:35 AM 55.4 °F 51.8 °F 88% 30.15 in 10.0 mi Calm Calm - N/A   Clear
7:55 AM 59.0 °F 53.6 °F 82% 30.16 in 10.0 mi NW 3.5 mph - N/A   Clear
8:14 AM 59.0 °F 53.6 °F 82% 30.17 in 10.0 mi NW 3.5 mph - N/A   Clear
8:36 AM 59.0 °F 51.8 °F 77% 30.17 in 10.0 mi Calm Calm - N/A   Clear
8:56 AM 60.8 °F 50.0 °F 68% 30.17 in 10.0 mi Calm Calm - N/A   Clear
9:15 AM 60.8 °F 50.0 °F 68% 30.17 in 10.0 mi Calm Calm - N/A   Clear
9:36 AM 60.8 °F 50.0 °F 68% 30.18 in 10.0 mi Calm Calm - N/A   Clear
9:55 AM 62.6 °F 50.0 °F 63% 30.18 in 10.0 mi Calm Calm - N/A   Clear
10:15 AM 62.6 °F 48.2 °F 59% 30.18 in 10.0 mi Calm Calm - N/A   Clear
10:36 AM 66.2 °F 48.2 °F 52% 30.18 in 10.0 mi North 3.5 mph - N/A   Clear
10:55 AM 68.0 °F 50.0 °F 52% 30.19 in 10.0 mi NNW 4.6 mph - N/A   Clear
11:16 AM 69.8 °F 48.2 °F 46% 30.19 in 10.0 mi Calm Calm - N/A   Clear
11:36 AM 69.8 °F 50.0 °F 49% 30.19 in 10.0 mi NW 4.6 mph - N/A   Clear
11:56 AM 69.8 °F 50.0 °F 49% 30.19 in 10.0 mi NNW 9.2 mph - N/A   Scattered Clouds
12:15 PM 69.8 °F 46.4 °F 43% 30.19 in 10.0 mi North 4.6 mph - N/A   Scattered Clouds
12:36 PM 69.8 °F 46.4 °F 43% 30.19 in 10.0 mi NNW 5.8 mph - N/A   Scattered Clouds
12:56 PM 69.8 °F 44.6 °F 40% 30.19 in 10.0 mi North 4.6 mph - N/A   Mostly Cloudy
1:15 PM 69.8 °F 44.6 °F 40% 30.18 in 10.0 mi North 4.6 mph - N/A   Mostly Cloudy
1:36 PM 71.6 °F 46.4 °F 41% 30.18 in 10.0 mi North 4.6 mph - N/A   Mostly Cloudy
1:56 PM 71.6 °F 44.6 °F 38% 30.18 in 10.0 mi NW 6.9 mph - N/A   Overcast
2:15 PM 73.4 °F 46.4 °F 38% 30.18 in 10.0 mi North 4.6 mph 9.2 mph N/A   Scattered Clouds
2:36 PM 71.6 °F 44.6 °F 38% 30.17 in 10.0 mi NNW 6.9 mph - N/A   Mostly Cloudy
2:55 PM 71.6 °F 44.6 °F 38% 30.17 in 10.0 mi NNW 6.9 mph - N/A   Overcast
3:16 PM 69.8 °F 44.6 °F 40% 30.16 in 10.0 mi NE 4.6 mph - N/A   Scattered Clouds
3:36 PM 73.4 °F 46.4 °F 38% 30.16 in 10.0 mi North 4.6 mph - N/A   Mostly Cloudy
3:55 PM 71.6 °F 44.6 °F 38% 30.16 in 10.0 mi North 3.5 mph - N/A   Overcast
4:16 PM 71.6 °F 46.4 °F 41% 30.16 in 10.0 mi Calm Calm - N/A   Overcast
4:36 PM 69.8 °F 46.4 °F 43% 30.16 in 10.0 mi NNW 3.5 mph - N/A   Overcast
4:55 PM 69.8 °F 46.4 °F 43% 30.15 in 10.0 mi Calm Calm - N/A   Mostly Cloudy
5:16 PM 73.4 °F 48.2 °F 41% 30.15 in 10.0 mi WNW 4.6 mph - N/A   Scattered Clouds
5:36 PM 73.4 °F 50.0 °F 44% 30.15 in 10.0 mi WNW 5.8 mph - N/A   Scattered Clouds
5:55 PM 71.6 °F 46.4 °F 41% 30.15 in 10.0 mi NW 4.6 mph - N/A   Mostly Cloudy
6:16 PM 71.6 °F 48.2 °F 43% 30.14 in 10.0 mi NNW 4.6 mph - N/A   Scattered Clouds
6:36 PM 71.6 °F 46.4 °F 41% 30.14 in 10.0 mi NNW 3.5 mph - N/A   Scattered Clouds
6:55 PM 71.6 °F 48.2 °F 43% 30.14 in 10.0 mi NNW 3.5 mph - N/A   Clear
7:15 PM 69.8 °F 46.4 °F 43% 30.14 in 10.0 mi NNW 3.5 mph - N/A   Clear
7:36 PM 69.8 °F 50.0 °F 49% 30.14 in 10.0 mi Calm Calm - N/A   Clear
7:55 PM 68.0 °F 53.6 °F 60% 30.14 in 10.0 mi Calm Calm - N/A   Clear
8:15 PM 62.6 °F 51.8 °F 68% 30.14 in 10.0 mi Calm Calm - N/A   Clear
8:36 PM 60.8 °F 51.8 °F 72% 30.15 in 10.0 mi Calm Calm - N/A   Clear
8:55 PM 60.8 °F 51.8 °F 72% 30.15 in 10.0 mi Calm Calm - N/A   Clear
9:15 PM 60.8 °F 51.8 °F 72% 30.16 in 10.0 mi Calm Calm - N/A   Clear
9:36 PM 59.0 °F 53.6 °F 82% 30.17 in 10.0 mi Calm Calm - N/A   Clear
9:55 PM 59.0 °F 53.6 °F 82% 30.17 in 10.0 mi Calm Calm - N/A   Clear
10:15 PM 55.4 °F 51.8 °F 88% 30.18 in 10.0 mi Calm Calm - N/A   Clear
10:36 PM 55.4 °F 53.6 °F 94% 30.18 in 10.0 mi Calm Calm - N/A   Clear
10:55 PM 55.4 °F 51.8 °F 88% 30.19 in 10.0 mi Calm Calm - N/A   Clear
11:15 PM 55.4 °F 53.6 °F 94% 30.19 in 10.0 mi Calm Calm - N/A   Clear
11:36 PM 53.6 °F 51.8 °F 94% 30.19 in 10.0 mi Calm Calm - N/A   Clear
11:55 PM 53.6 °F 51.8 °F 94% 30.19 in 10.0 mi Calm Calm - N/A   Clear